Mora, MN

2:27 AM CDT on March 26, 2017 (GMT -0500)
Mora Municipal

Weather History for KJMR - May, 2013

Change the Weather History Date:

Sunday, May 19, 2013

  Actual Average Record
Temperature  
Mean Temperature 64 °F -  
Max Temperature 77 °F 70 °F 87 °F (1970)
Min Temperature 50 °F 41 °F 25 °F (1986)
Degree Days  
Heating Degree Days 2    
Growing Degree Days 14 (Base 50)    
Moisture  
Dew Point 54 °F    
Average Humidity 85    
Maximum Humidity 94    
Minimum Humidity 54    
Precipitation  
Precipitation 1.08 in - - ()
Sea Level Pressure  
Sea Level Pressure 29.73 in    
Wind  
Wind Speed 3 mph (ESE)    
Max Wind Speed 17 mph    
Max Gust Speed 44 mph    
Visibility 9 miles    
Events Rain , Thunderstorm    
Averages and records for this station are not official NWS values.
T = Trace of Precipitation, MM = Missing Value Source: NWS Daily Summary

Daily Weather History Graph

Daily Weather History Graph

Search for Another Location

Airport or City:

Trip Planner

Search our weather history database for the weather conditions in past years. The results will help you decide how hot, cold, wet, or windy it might be!

Date:

Astronomy

May. 19, 2013 Rise Set
Actual Time 5:36 AM CDT 8:43 PM CDT
Civil Twilight 5:01 AM CDT 9:18 PM CDT
Nautical Twilight 4:15 AM CDT 10:05 PM CDT
Astronomical Twilight 3:19 AM CDT 11:01 PM CDT
Moon 2:30 PM CDT (5/19) 2:19 AM CDT (5/19)
Length of Visible Light 16h 17m
Length of Day
15h 06m
Waxing Gibbous, 65% of the Moon is Illuminated
May 19
Waxing Gibbous
May 24
Full
May 31
Last Quarter
Jun 8
New
Jun 16
First Quarter

Hourly Weather History & Observations

Time (CDT) Temp. Dew Point Humidity Pressure Visibility Wind Dir Wind Speed Gust Speed Precip Events Conditions
12:11 AM 55.4 °F 51.8 °F 88% 29.85 in 10.0 mi Calm Calm - N/A   Clear
12:31 AM 55.4 °F 51.8 °F 88% 29.84 in 10.0 mi Calm Calm - N/A   Clear
12:51 AM 53.6 °F 50.0 °F 88% 29.83 in 10.0 mi ENE 4.6 mph - N/A   Clear
1:11 AM 51.8 °F 48.2 °F 88% 29.83 in 10.0 mi Calm Calm - N/A   Clear
1:31 AM 50.0 °F 46.4 °F 87% 29.83 in 10.0 mi Calm Calm - N/A   Clear
1:51 AM 50.0 °F 46.4 °F 87% 29.82 in 10.0 mi ENE 3.5 mph - N/A   Scattered Clouds
2:11 AM 50.0 °F 46.4 °F 87% 29.83 in 10.0 mi ENE 3.5 mph - N/A   Scattered Clouds
2:31 AM 50.0 °F 46.4 °F 87% 29.84 in 10.0 mi Calm Calm - N/A   Overcast
2:51 AM 50.0 °F 46.4 °F 87% 29.84 in 10.0 mi East 3.5 mph - N/A   Overcast
3:11 AM 50.0 °F 46.4 °F 87% 29.84 in 10.0 mi Calm Calm - N/A   Scattered Clouds
3:31 AM 50.0 °F 46.4 °F 87% 29.84 in 10.0 mi Calm Calm - N/A   Clear
3:51 AM 50.0 °F 46.4 °F 87% 29.84 in 10.0 mi Calm Calm - N/A   Clear
4:11 AM 50.0 °F 48.2 °F 94% 29.83 in 10.0 mi Calm Calm - N/A   Scattered Clouds
4:31 AM 51.8 °F 50.0 °F 94% 29.82 in 10.0 mi Calm Calm - N/A   Mostly Cloudy
4:51 AM 53.6 °F 50.0 °F 88% 29.81 in 10.0 mi Calm Calm - N/A   Scattered Clouds
5:11 AM 53.6 °F 50.0 °F 88% 29.78 in 10.0 mi East 4.6 mph - N/A   Scattered Clouds
5:31 AM 53.6 °F 50.0 °F 88% 29.78 in 10.0 mi Calm Calm - N/A   Clear
5:51 AM 53.6 °F 50.0 °F 88% 29.78 in 10.0 mi Calm Calm - N/A   Scattered Clouds
6:11 AM 53.6 °F 51.8 °F 94% 29.80 in 7.0 mi East 3.5 mph - N/A   Scattered Clouds
6:31 AM 55.4 °F 53.6 °F 94% 29.80 in 10.0 mi Calm Calm - N/A   Mostly Cloudy
7:11 AM 55.4 °F 53.6 °F 94% 29.80 in 7.0 mi Calm Calm - N/A Thunderstorm Mostly Cloudy
7:31 AM 55.4 °F 53.6 °F 94% 29.79 in 7.0 mi Calm Calm - N/A Rain Light Rain
7:51 AM 55.4 °F 53.6 °F 94% 29.78 in 7.0 mi East 3.5 mph - N/A   Light Drizzle
8:11 AM 57.2 °F 53.6 °F 88% 29.77 in 5.0 mi Calm Calm - 0.01 in Rain Light Rain
8:31 AM 55.4 °F 53.6 °F 94% 29.76 in 3.0 mi East 3.5 mph - 0.03 in Rain Rain
8:51 AM 57.2 °F 55.4 °F 94% 29.67 in 3.0 mi NNE 3.5 mph - 0.05 in Rain Rain
9:11 AM 60.8 °F 59.0 °F 94% 29.70 in 10.0 mi East 4.6 mph - N/A   Light Drizzle
9:51 AM 64.4 °F 62.6 °F 94% 29.75 in 10.0 mi South 6.9 mph - N/A   Overcast
10:11 AM 64.4 °F 60.8 °F 88% 29.75 in 7.0 mi SSE 5.8 mph - N/A   Overcast
10:31 AM 64.4 °F 60.8 °F 88% 29.75 in 7.0 mi South 3.5 mph - N/A   Overcast
10:51 AM 64.4 °F 62.6 °F 94% 29.75 in 7.0 mi South 3.5 mph - N/A   Overcast
11:11 AM 64.4 °F 60.8 °F 88% 29.73 in 7.0 mi SE 3.5 mph - N/A   Mostly Cloudy
11:31 AM 64.4 °F 60.8 °F 88% 29.73 in 10.0 mi SE 4.6 mph - N/A   Overcast
11:51 AM 69.8 °F 62.6 °F 78% 29.72 in 10.0 mi ESE 6.9 mph - N/A   Overcast
12:11 PM 69.8 °F 62.6 °F 78% 29.72 in 10.0 mi SE 6.9 mph - N/A   Overcast
12:31 PM 71.6 °F 60.8 °F 69% 29.72 in 10.0 mi SSE 6.9 mph - N/A   Overcast
12:51 PM 73.4 °F 60.8 °F 65% 29.72 in 10.0 mi South 15.0 mph 19.6 mph N/A   Overcast
1:11 PM 73.4 °F 60.8 °F 65% 29.72 in 10.0 mi South 8.1 mph - N/A   Overcast
1:31 PM 73.4 °F 59.0 °F 61% 29.72 in 10.0 mi SSW 13.8 mph 20.7 mph N/A   Mostly Cloudy
2:11 PM 73.4 °F 59.0 °F 61% 29.71 in 10.0 mi South 9.2 mph - N/A   Mostly Cloudy
2:31 PM 75.2 °F 60.8 °F 61% 29.70 in 10.0 mi SSE 8.1 mph - N/A   Overcast
3:11 PM 75.2 °F 60.8 °F 61% 29.69 in 10.0 mi SE 6.9 mph - N/A   Overcast
3:31 PM 75.2 °F 60.8 °F 61% 29.68 in 10.0 mi SE 6.9 mph - N/A   Overcast
3:51 PM 77.0 °F 60.8 °F 57% 29.67 in 10.0 mi ESE 5.8 mph - N/A   Mostly Cloudy
4:11 PM 77.0 °F 60.8 °F 57% 29.67 in 10.0 mi East 5.8 mph - N/A   Mostly Cloudy
4:31 PM 77.0 °F 59.0 °F 54% 29.66 in 10.0 mi ESE 5.8 mph - N/A   Overcast
4:51 PM 73.4 °F 60.8 °F 65% 29.66 in 10.0 mi ESE 5.8 mph - N/A Rain , Thunderstorm Light Thunderstorms and Rain
5:11 PM 66.2 °F 57.2 °F 73% 29.71 in 1.0 mi South 17.3 mph 43.7 mph 0.41 in Rain , Thunderstorm Heavy Thunderstorms and Rain
5:31 PM 62.6 °F 59.0 °F 88% 29.69 in 10.0 mi North 4.6 mph - 0.55 in Rain , Thunderstorm Light Thunderstorms and Rain
5:51 PM 62.6 °F 59.0 °F 88% 29.67 in 7.0 mi NE 6.9 mph - 0.57 in Rain Light Rain
6:11 PM 60.8 °F 59.0 °F 94% 29.65 in 10.0 mi NNE 6.9 mph - N/A Rain Light Rain
6:31 PM 60.8 °F 59.0 °F 94% 29.72 in 7.0 mi SE 15.0 mph 20.7 mph 0.05 in Rain , Thunderstorm Heavy Thunderstorms and Rain
6:51 PM 59.0 °F 55.4 °F 88% 29.67 in 5.0 mi East 9.2 mph 19.6 mph 0.30 in Rain Rain
7:11 PM 55.4 °F 53.6 °F 94% 29.66 in 5.0 mi NE 9.2 mph - 0.06 in Rain Rain
7:31 PM 53.6 °F 51.8 °F 94% 29.67 in 7.0 mi ENE 6.9 mph 17.3 mph 0.11 in Rain Rain
7:51 PM 53.6 °F 50.0 °F 88% 29.67 in 4.0 mi ENE 5.8 mph - 0.15 in Rain Rain
8:11 PM 51.8 °F 50.0 °F 94% 29.66 in 5.0 mi NE 4.6 mph - N/A Rain Light Rain
8:31 PM 51.8 °F 50.0 °F 94% 29.66 in 7.0 mi East 3.5 mph - 0.01 in   Overcast
8:49 PM 51.8 °F 50.0 °F 94% 29.65 in 7.0 mi ENE 3.5 mph - 0.01 in   Overcast
9:11 PM 51.8 °F 50.0 °F 94% 29.65 in 7.0 mi East 4.6 mph - N/A   Overcast
9:31 PM 51.8 °F 50.0 °F 94% 29.65 in 7.0 mi Calm Calm - N/A   Overcast
9:51 PM 51.8 °F 50.0 °F 94% 29.67 in 7.0 mi Calm Calm - N/A   Overcast
10:11 PM 51.8 °F 50.0 °F 94% 29.67 in 10.0 mi ENE 4.6 mph - N/A   Overcast
10:31 PM 51.8 °F 50.0 °F 94% 29.66 in 10.0 mi Calm Calm - N/A   Overcast
10:51 PM 50.0 °F 48.2 °F 94% 29.66 in 10.0 mi ENE 4.6 mph - N/A   Overcast
11:11 PM 50.0 °F 48.2 °F 94% 29.65 in 10.0 mi ENE 5.8 mph - N/A   Overcast
11:31 PM 50.0 °F 48.2 °F 94% 29.65 in 10.0 mi ENE 8.1 mph - N/A   Overcast
11:51 PM 50.0 °F 48.2 °F 94% 29.65 in 10.0 mi East 8.1 mph - N/A   Overcast